> 16, 17 y 18 de Abril / Concordia (Entre Ríos)
Pos Auto Piloto Marca Vts. Tiempo Dif.
1 100 TOMAS BERGALLO TOYOTA ETIOS 12 34:03.046
2 16 NICOLAS BULICH TOYOTA ETIOS 12 34:03.540 0.494
3 113 LUIS BESSONE TOYOTA ETIOS 12 34:04.755 1,709
4 17 LUCAS PETRACCHINI RENAULT CLIO 12 34:05.475 2,429
5 4 LUIGI MELLI TOYOTA ETIOS 12 34:05.860 2,814
6 37 PABLO COLLAZO FIESTA KINETIC 12 34:06.061 3,015
7 18 RENZO CERRETTI FIESTA KINETIC 12 34:06.314 3,268
8 8 JUAN MANUEL DAMIANI TOYOTA ETIOS 12 34:06.847 3,801
9 3 FRANCISCO COLTRINARI TOYOTA EIOS 12 34:07.384 4,338
10 2 THIAGO MARTINEZ TOYOTA ETIOS 12 34:07.691 4,645
11 14 JUAN KREITZ NISSAN MARCH 12 34:08.076 5,030
12 22 JUAN PABLO URRUTIA FIESTA KINETIC 12 34:09.113 6,067
13 91 EMILIANO URQUIZA TOYOTA ETIOS 12 34:09.824 6,778
14 12 SANTIAGO ROBLEDO TOYOTA ETIOS 12 34:10.150 7,104
15 38 LUCAS BARBALARGA RENAULT CLIO 12 34:10.719 7,673
16 11 ALFREDO LESTARD RENAULT CLIO 12 34:10.805 7,759
17 36 EDUARDO MORENO TOYOTA ETIOS 12 34:11.361 8,315
18 87 MARCELO MARCHESSE TOYOTA ETIOS 12 34:12.692 9,646
19 99 LUCIANO VIANA TOYOTA ETIOS 12 34:14.214 11,168
20 116 ANDRES D'AMICO RENAULT CLIO 12 34:14.376 11,330
21 88 JORGE POSSIEL NISSAN MARCH 12 34:15.831 12,785
22 41 JUAN JOSE CONDE FIESTA KINETIC 12 34:17.247 14,201
23 58 MAXIMO DONZINO RENAULT CLIO 12 34:18.080 15,034
24 43 DIEGO PRESTA RENAULT CLIO 12 34:18.466 15,420
25 56 ANDRES GOMEZ LUNA FIESTA KINETIC 12 34:20.575 17,529
26 44 JUAN GARAVAGLIA CHEVROLET ONIX 12 34:21.557 18,511
27 52 DANIEL LESTARD TOYOTA ETIOS 12 34:25.588 22,542
28 57 PABLO M. GRIPPO TOYOTA ETIOS 12 34:31.962 28,916
29 1 PABLO VUYOVICH FIESTA KINETIC 11 32:04.238 1 Vuelta
30 114 ESTEBAN CASAIS RENAULT CLIO 11 32:17.921 1 Vuelta
31 118 WALTER BESSONE TOYOTA ETIOS 11 32:36.851 1 Vuelta
77 ELIAS BATTINI TOYOTA ETIOS 7 21:16.357 5 Vueltas
78 RAMIRO ALCAINE RENAULT CLIO 7 21:44.046 5 Vueltas
74 SEBASTIAN SIGNORE RENAULT CLIO 6 19:10.531 6 Vueltas
6 JOAQUIN VOLPE FIESTA KINETIC 6 19:13.132 6 Vueltas
40 MARCELO GARCIA RENAULT CLIO 5 19:29.938 7 Vueltas
68 CRISTIAN GARBIGLIA FIESTA KINETIC 4 12:23.308 8 Vueltas
15 MARTIN BLASIG TOYOTA ETIOS 3 10:20.013 9 Vueltas
9 TOMAS SNIECHOWSKI FIESTA KINETIC 1 2:46.021 11 Vueltas
20 RUBEN LOIACONO TOYOTA ETIOS
33 PABLO MALIZIA TOYOTA ETIOS
35 MARTIN FIERROS TOYOTA ETIOS
93 MARTIN BADARACO NISSAN MARCH
95 PABLO MELILLO TOYOTA ETIOS

AUTO 9 APERCIBIDO POR MANIOBRA PELIGROSA AL AUTO 116
AUTO 118 APERCIBIDO POR MANIOBRA PELIGROSA.

Márgen de victoria 0.494 Velocidad media 99,381 Mejor t° de vuelta 1:58.422 Mejor Vel. 142,879 Mejor vuelta para 100 – TOMAS BERGALLO

Pos Auto Piloto Marca Vts. Tiempo Dif.
1 16 NICOLAS BULICH TOYOTA ETIOS 6 11:54.090
2 17 LUCAS PETRACCHINI RENAULT CLIO 6 11:54.601 0.511
3 113 LUIS BESSONE TOYOTA ETIOS 6 11:55.114 1,024
4 2 THIAGO MARTINEZ TOYOTA ETIOS 6 11:55.853 1,763
5 9 TOMAS SNIECHOWSKI FIESTA KINETIC 6 11:56.137 2,047
6 18 RENZO CERRETTI FIESTA KINETIC 6 11:59.057 4,967
7 3 FRANCISCO COLTRINARI TOYOTA EIOS 6 11:59.710 5,620
8 37 PABLO COLLAZO FIESTA KINETIC 6 12:00.227 6,137
9 36 EDUARDO MORENO TOYOTA ETIOS 6 12:06.725 12,635
10 22 JUAN PABLO URRUTIA FIESTA KINETIC 6 12:07.293 13,203
11 87 MARCELO MARCHESSE TOYOTA ETIOS 6 12:07.929 13,839
12 114 ESTEBAN CASAIS RENAULT CLIO 6 12:08.669 14,579
13 38 LUCAS BARBALARGA RENAULT CLIO 6 12:09.424 15,334
14 20 RUBEN LOIACONO TOYOTA ETIOS 6 12:16.238 22,148
15 44 JUAN GARAVAGLIA CHEVROLET ONIX 6 12:27.778 33,688
16 91 EMILIANO URQUIZA TOYOTA ETIOS 6 12:30.199 36,109
17 58 MAXIMO DONZINO RENAULT CLIO 6 12:55.563 1:01.473
18 52 DANIEL LESTARD TOYOTA ETIOS 5 10:14.503 1 Vuelta
19 11 ALFREDO LESTARD RENAULT CLIO 5 12:37.778 1 Vuelta
88 JORGE POSSIEL NISSAN MARCH 1 2:02.005 5 Vueltas
12 SANTIAGO ROBLEDO TOYOTA ETIOS 1 3:10.422 5 Vueltas
32 FACUNDO VACCALLUZZO RENAULT CLIO

NO LARGO AUTO Nro. 39.

Márgen de victoria 0.511 Velocidad media 142,167 Mejor t° de vuelta 1:58.641 Mejor Vel. 142,615 Mejor vuelta para 113 – LUIS BESSONE

Pos Auto Piloto Marca Vts. Tiempo Dif.
1 100 TOMAS BERGALLO TOYOTA ETIOS 6 14:18.211
2 1 PABLO VUYOVICH FIESTA KINETIC 6 14:20.057 1,846
3 4 LUIGI MELLI TOYOTA ETIOS 6 14:20.647 2,436
4 116 ANDRES D'AMICO RENAULT CLIO 6 14:20.985 2,774
5 8 JUAN MANUEL DAMIANI TOYOTA ETIOS 6 14:24.007 5,796
6 33 PABLO MALIZIA TOYOTA ETIOS 6 14:24.243 6,032
7 93 MARTIN BADARACCO NISSAN MARCH 6 14:25.444 7,233
8 15 MARTIN BLASIG TOYOTA ETIOS 6 14:26.242 8,031
9 14 JUAN KREITZ NISSAN MARCH 6 14:26.724 8,513
10 35 MARTIN FIERROS TOYOTA ETIOS 6 14:26.895 8,684
11 68 CRISTIAN GARBIGLIA FIESTA KINETIC 6 14:28.123 9,912
12 99 LUCIANO VIANA TOYOTA ETIOS 6 14:28.822 10,611
13 74 SEBASTIAN SIGNORE RENAULT CLIO 6 14:31.509 13,298
14 95 PABLO MELILLO TOYOTA ETIOS 6 14:31.854 13,643
15 43 DIEGO PRESTA RENAULT CLIO 6 14:32.679 14,468
16 57 PABLO M. GRIPPO TOYOTA ETIOS 6 14:33.132 14,921
17 56 ANDRES GOMEZ LUNA FIESTA KINETIC 6 14:34.049 15,838
18 78 RAMIRO ALCAINE RENAULT CLIO 6 14:53.571 35,360
40 MARCELO GARCIA RENAULT CLIO 4 9:50.092 2 Vueltas
118 WALTER BESSONE TOYOTA ETIOS 4 10:27.144 2 Vueltas
41 JUAN JOSE CONDE FIESTA KINETIC 3 7:49.829 3 Vueltas
6 JOAQUIN VOLPE FIESTA KINETIC

AUTO Nro. 77 EXCLUIDO PARCIALMENTE POR MANIOBRA PELIGROSA AL AUTO 40.
AUTO 78 RECARGADO CON 30 SEGUNDOS POR MANIOBRA PELIGROSA AL AUTO 118.

Márgen de victoria 1.846 Velocidad media 118,293 Mejor t° de vuelta 1:58.268 Mejor Vel. 143,065 Mejor vuelta para 100 – TOMAS BERGALLO

Pos Auto Piloto Marca Tiempo Dif.
1 100 TOMAS BERGALLO TOYOTA ETIOS 1:57.336
2 17 LUCAS PETRACCHINI RENAULT CLIO 1:57.566 0.230
3 4 LUIGI MELLI TOYOTA ETIOS 1:57.653 0.317
4 16 NICOLAS BULICH TOYOTA ETIOS 1:57.717 0.381
5 1 PABLO VUYOVICH FIESTA KINETIC 1:57.723 0.387
6 2 THIAGO MARTINEZ TOYOTA ETIOS 1:57.945 0.609
7 78 RAMIRO ALCAINE RENAULT CLIO 1:58.046 0.710
8 88 JORGE POSSIEL NISSAN MARCH 1:58.054 0.718
9 116 ANDRES D'AMICO RENAULT CLIO 1:58.068 0.732
10 113 LUIS BESSONE TOYOTA ETIOS 1:58.091 0.755
11 8 JUAN MANUEL DAMIANI TOYOTA ETIOS 1:58.141 0.805
12 11 ALFREDO LESTARD RENAULT CLIO 1:58.172 0.836
13 118 WALTER BESSONE TOYOTA ETIOS 1:58.198 0.862
14 9 TOMAS SNIECHOWSKI FIESTA KINETIC 1:58.226 0.890
15 35 MARTIN FIERROS TOYOTA ETIOS 1:58.259 0.923
16 12 SANTIAGO ROBLEDO TOYOTA ETIOS 1:58.276 0.940
17 15 MARTIN BLASIG TOYOTA ETIOS 1:58.342 1,006
18 37 PABLO COLLAZO FIESTA KINETIC 1:58.447 1,111
19 6 JOAQUIN VOLPE FIESTA KINETIC 1:58.524 1,188
20 91 EMILIANO URQUIZA TOYOTA ETIOS 1:58.538 1,202
21 93 MARTIN BADARACO NISSAN MARCH 1:58.727 1,391
22 3 FRANCISCO COLTRINARI TOYOTA EIOS 1:58.745 1,409
23 68 CRISTIAN GARBIGLIA FIESTA KINETIC 1:58.789 1,453
24 22 JUAN PABLO URRUTIA FIESTA KINETIC 1:58.824 1,488
25 33 PABLO MALIZIA TOYOTA ETIOS 1:58.836 1,500
26 18 RENZO CERRETTI FIESTA KINETIC 1:58.871 1,535
27 77 ELIAS BATTINI TOYOTA ETIOS 1:58.910 1,574
28 36 EDUARDO MORENO TOYOTA ETIOS 1:59.060 1,724
29 99 LUCIANO VIANA TOYOTA ETIOS 1:59.325 1,989
30 38 LUCAS BARBALARGA RENAULT CLIO 1:59.388 2,052
31 14 JUAN KREITZ NISSAN MARCH 1:59.519 2,183
32 87 MARCELO MARCHESSE TOYOTA ETIOS 1:59.650 2,314
33 40 MARCELO GARCIA RENAULT CLIO 1:59.757 2,421
34 114 ESTEBAN CASAIS RENAULT CLIO 1:59.946 2,610
35 41 JUAN JOSE CONDE FIESTA KINETIC 2:00.052 2,716
36 52 DANIEL LESTARD TOYOTA ETIOS 2:00.128 2,792
37 57 PABLO M. GRIPPO TOYOTA ETIOS 2:00.210 2,874
38 20 RUBEN LOIACONO TOYOTA ETIOS 2:00.387 3,051
39 74 SEBASTIAN SIGNORE RENAULT CLIO 2:00.643 3,307
40 58 MAXIMO DONZINO RENAULT CLIO 2:00.833 3,497
41 43 DIEGO PRESTA RENAULT CLIO 2:00.942 3,606
42 44 JUAN GARAVAGLIA CHEVROLET ONIX 2:01.488 4,152
43 95 PABLO MELILLO TOYOTA ETIOS 2:01.563 4,227
44 32 FACUNDO VACCALLUZZO RENAULT CLIO 2:07.801 10,465

SIN TIEMPO AUTO Nro. 56.
AUTO Nro. 39 RETIRO DE TIEMPOS POR ARTICULO 10.3 DEL REGLAMENTO CAMPEONATO.

Pos Auto Piloto Marca Tiempo Dif.
1 116 ANDRES D'AMICO RENAULT CLIO 1:57.171
2 12 SANTIAGO ROBLEDO TOYOTA ETIOS 1:57.625 0.454
3 93 MARTIN BADARACO NISSAN MARCH 1:57.661 0.490
4 18 RENZO CERRETTI FIESTA KINETIC 1:57.803 0.632
5 17 LUCAS PETRACCHINI RENAULT CLIO 1:57.806 0.635
6 1 PABLO VUYOVICH FIESTA KINETIC 1:57.807 0.636
7 100 TOMAS BERGALLO TOYOTA ETIOS 1:57.873 0.702
8 9 TOMAS SNIECHOWSKI FIESTA KINETIC 1:57.902 0.731
9 2 THIAGO MARTINEZ TOYOTA ETIOS 1:57.928 0.757
10 16 NICOLAS BULICH TOYOTA ETIOS 1:58.089 0.918
11 4 LUIGI MELLI TOYOTA ETIOS 1:58.105 0.934
12 113 LUIS BESSONE TOYOTA ETIOS 1:58.201 1,030
13 118 WALTER BESSONE TOYOTA ETIOS 1:58.293 1,122
14 33 PABLO MALIZIA TOYOTA ETIOS 1:58.422 1,251
15 8 JUAN MANUEL DAMIANI TOYOTA ETIOS 1:58.439 1,268
16 11 ALFREDO LESTARD RENAULT CLIO 1:58.445 1,274
17 88 JORGE POSSIEL NISSAN MARCH 1:58.497 1,326
18 3 FRANCISCO COLTRINARI TOYOTA EIOS 1:58.517 1,346
19 14 JUAN KREITZ NISSAN MARCH 1:58.588 1,417
20 22 JUAN PABLO URRUTIA FIESTA KINETIC 1:58.706 1,535
21 37 PABLO COLLAZO FIESTA KINETIC 1:58.715 1,544
22 78 RAMIRO ALCAINE RENAULT CLIO 1:58.787 1,616
23 91 EMILIANO URQUIZA TOYOTA ETIOS 1:58.944 1,773
24 15 MARTIN BLASIG TOYOTA ETIOS 1:59.028 1,857
25 35 MARTIN FIERROS TOYOTA ETIOS 1:59.054 1,883
26 87 MARCELO MARCHESSE TOYOTA ETIOS 1:59.099 1,928
27 40 MARCELO GARCIA RENAULT CLIO 1:59.164 1,993
28 39 GONZALO ALCAINE TOYOTA ETIOS 1:59.503 2,332
29 77 ELIAS BATTINI TOYOTA ETIOS 1:59.651 2,480
30 114 ESTEBAN CASAIS RENAULT CLIO 1:59.873 2,702
31 57 PABLO M. GRIPPO TOYOTA ETIOS 1:59.943 2,772
32 6 JOAQUIN VOLPE FIESTA KINETIC 2:00.051 2,880
33 36 EDUARDO MORENO TOYOTA ETIOS 2:00.091 2,920
34 56 ANDRES GOMEZ LUNA FIESTA KINETIC 2:00.537 3,366
35 20 RUBEN LOIACONO TOYOTA ETIOS 2:00.593 3,422
36 38 LUCAS BARBALARGA RENAULT CLIO 2:00.641 3,470
37 52 DANIEL LESTARD TOYOTA ETIOS 2:00.689 3,518
38 41 JUAN JOSE CONDE FIESTA KINETIC 2:00.698 3,527
39 99 LUCIANO VIANA TOYOTA ETIOS 2:00.918 3,747
40 74 SEBASTIAN SIGNORE RENAULT CLIO 2:01.462 4,291
41 68 CRISTIAN GARBIGLIA FIESTA KINETIC 2:04.096 6,925
42 58 MAXIMO DONZINO RENAULT CLIO 2:04.116 6,945
43 44 JUAN GARAVAGLIA CHEVROLET ONIX 2:24.013 26,842
44 32 FACUNDO VACCALLUZZO RENAULT CLIO 2:35.282 38,111

SIN TIEMPO AUTOS Nro. 43 Y 95.

Pos Auto Piloto Marca Tiempo Dif.
1 100 TOMAS BERGALLO TOYOTA ETIOS 1:57.430
2 18 RENZO CERRETTI FIESTA KINETIC 1:57.724 0.294
3 1 PABLO VUYOVICH FIESTA KINETIC 1:57.821 0.391
4 116 ANDRES D'AMICO RENAULT CLIO 1:57.904 0.474
5 17 LUCAS PETRACCHINI RENAULT CLIO 1:57.934 0.504
6 78 RAMIRO ALCAINE RENAULT CLIO 1:58.201 0.771
7 37 PABLO COLLAZO FIESTA KINETIC 1:58.217 0.787
8 12 SANTIAGO ROBLEDO TOYOTA ETIOS 1:58.288 0.858
9 118 WALTER BESSONE TOYOTA ETIOS 1:58.460 1,030
10 16 NICOLAS BULICH TOYOTA ETIOS 1:58.466 1,036
11 9 TOMAS SNIECHOWSKI FIESTA KINETIC 1:58.502 1,072
12 22 JUAN PABLO URRUTIA FIESTA KINETIC 1:58.515 1,085
13 4 LUIGI MELLI TOYOTA ETIOS 1:58.555 1,125
14 2 THIAGO MARTINEZ TOYOTA ETIOS 1:58.572 1,142
15 88 JORGE POSSIEL NISSAN MARCH 1:58.588 1,158
16 14 JUAN KREITZ NISSAN MARCH 1:58.796 1,366
17 39 GONZALO ALCAINE TOYOTA ETIOS 1:58.920 1,490
18 15 MARTIN BLASIG TOYOTA ETIOS 1:58.943 1,513
19 68 CRISTIAN GARBIGLIA FIESTA KINETIC 1:58.968 1,538
20 91 EMILIANO URQUIZA TOYOTA ETIOS 1:59.046 1,616
21 93 MARTIN BADARACO NISSAN MARCH 1:59.104 1,674
22 113 LUIS BESSONE TOYOTA ETIOS 1:59.147 1,717
23 95 PABLO MELILLO TOYOTA ETIOS 1:59.180 1,750
24 11 ALFREDO LESTARD RENAULT CLIO 1:59.386 1,956
25 8 JUAN MANUEL DAMIANI TOYOTA ETIOS 1:59.417 1,987
26 87 MARCELO MARCHESSE TOYOTA ETIOS 1:59.498 2,068
27 35 MARTIN FIERROS TOYOTA ETIOS 1:59.524 2,094
28 36 EDUARDO MORENO TOYOTA ETIOS 1:59.553 2,123
29 33 PABLO MALIZIA TOYOTA ETIOS 1:59.580 2,150
30 6 JOAQUIN VOLPE FIESTA KINETIC 1:59.699 2,269
31 77 ELIAS BATTINI TOYOTA ETIOS 1:59.878 2,448
32 3 FRANCISCO COLTRINARI TOYOTA EIOS 2:00.069 2,639
33 114 ESTEBAN CASAIS RENAULT CLIO 2:00.085 2,655
34 52 DANIEL LESTARD TOYOTA ETIOS 2:00.202 2,772
35 43 DIEGO PRESTA RENAULT CLIO 2:00.249 2,819
36 20 RUBEN LOIACONO TOYOTA ETIOS 2:00.293 2,863
37 38 LUCAS BARBALARGA RENAULT CLIO 2:00.302 2,872
38 99 LUCIANO VIANA TOYOTA ETIOS 2:00.506 3,076
39 41 JUAN JOSE CONDE FIESTA KINETIC 2:00.565 3,135
40 57 PABLO M. GRIPPO TOYOTA ETIOS 2:00.885 3,455
41 56 ANDRES GOMEZ LUNA FIESTA KINETIC 2:01.119 3,689
42 40 MARCELO GARCIA RENAULT CLIO 2:01.390 3,960
43 74 SEBASTIAN SIGNORE RENAULT CLIO 2:01.555 4,125
44 58 MAXIMO DONZINO RENAULT CLIO 2:01.641 4,211
45 44 JUAN GARAVAGLIA CHEVROLET ONIX 2:03.757 6,327
46 32 FACUNDO VACCALLUZZO RENAULT CLIO 6:39.114 4:41.684

Pos Auto Piloto Marca Tiempo Dif.
1 100 TOMAS BERGALLO TOYOTA ETIOS 1:57.430
2 18 RENZO CERRETTI FIESTA KINETIC 1:57.724 0.294
3 1 PABLO VUYOVICH FIESTA KINETIC 1:57.821 0.391
4 116 ANDRES D'AMICO RENAULT CLIO 1:57.904 0.474
5 17 LUCAS PETRACCHINI RENAULT CLIO 1:57.934 0.504
6 78 RAMIRO ALCAINE RENAULT CLIO 1:58.201 0.771
7 37 PABLO COLLAZO FIESTA KINETIC 1:58.217 0.787
8 12 SANTIAGO ROBLEDO TOYOTA ETIOS 1:58.288 0.858
9 118 WALTER BESSONE TOYOTA ETIOS 1:58.460 1,030
10 16 NICOLAS BULICH TOYOTA ETIOS 1:58.466 1,036
11 9 TOMAS SNIECHOWSKI FIESTA KINETIC 1:58.502 1,072
12 22 JUAN PABLO URRUTIA FIESTA KINETIC 1:58.515 1,085
13 4 LUIGI MELLI TOYOTA ETIOS 1:58.555 1,125
14 2 THIAGO MARTINEZ TOYOTA ETIOS 1:58.572 1,142
15 88 JORGE POSSIEL NISSAN MARCH 1:58.588 1,158
16 14 JUAN KREITZ NISSAN MARCH 1:58.796 1,366
17 39 GONZALO ALCAINE TOYOTA ETIOS 1:58.920 1,490
18 68 CRISTIAN GARBIGLIA FIESTA KINETIC 1:58.968 1,538
19 91 EMILIANO URQUIZA TOYOTA ETIOS 1:59.046 1,616
20 93 MARTIN BADARACO NISSAN MARCH 1:59.104 1,674
21 95 PABLO MELILLO TOYOTA ETIOS 1:59.180 1,750
22 11 ALFREDO LESTARD RENAULT CLIO 1:59.405 1,975
23 8 JUAN MANUEL DAMIANI TOYOTA ETIOS 1:59.417 1,987
24 35 MARTIN FIERROS TOYOTA ETIOS 1:59.524 2,094
25 113 LUIS BESSONE TOYOTA ETIOS 1:59.551 2,121
26 36 EDUARDO MORENO TOYOTA ETIOS 1:59.553 2,123
27 6 JOAQUIN VOLPE FIESTA KINETIC 1:59.699 2,269
28 33 PABLO MALIZIA TOYOTA ETIOS 1:59.864 2,434
29 77 ELIAS BATTINI TOYOTA ETIOS 1:59.878 2,448
30 3 FRANCISCO COLTRINARI TOYOTA EIOS 2:00.069 2,639
31 114 ESTEBAN CASAIS RENAULT CLIO 2:00.085 2,655
32 52 DANIEL LESTARD TOYOTA ETIOS 2:00.202 2,772
33 43 DIEGO PRESTA RENAULT CLIO 2:00.249 2,819
34 20 RUBEN LOIACONO TOYOTA ETIOS 2:00.293 2,863
35 38 LUCAS BARBALARGA RENAULT CLIO 2:00.302 2,872
36 99 LUCIANO VIANA TOYOTA ETIOS 2:00.506 3,076
37 41 JUAN JOSE CONDE FIESTA KINETIC 2:00.565 3,135
38 57 PABLO M. GRIPPO TOYOTA ETIOS 2:00.885 3,455
39 40 MARCELO GARCIA RENAULT CLIO 2:01.390 3,960
40 56 ANDRES GOMEZ LUNA FIESTA KINETIC 2:01.516 4,086
41 74 SEBASTIAN SIGNORE RENAULT CLIO 2:01.555 4,125
42 58 MAXIMO DONZINO RENAULT CLIO 2:01.641 4,211
43 44 JUAN GARAVAGLIA CHEVROLET ONIX 2:03.757 6,327
44 87 MARCELO MARCHESSE TOYOTA ETIOS 2:11.084 13,654
45 15 MARTIN BLASIG TOYOTA ETIOS 2:20.787 23,357

SIN TIEMPO AUTO Nro. 32

Pos Auto Piloto Marca Tiempo Dif.
1 116 ANDRES D'AMICO RENAULT CLIO 1:58.234
2 17 LUCAS PETRACCHINI RENAULT CLIO 1:58.236 0.002
3 18 RENZO CERRETTI FIESTA KINETIC 1:58.494 0.260
4 1 PABLO VUYOVICH FIESTA KINETIC 1:58.731 0.497
5 16 NICOLAS BULICH TOYOTA ETIOS 1:58.858 0.624
6 9 TOMAS SNIECHOWSKI FIESTA KINETIC 1:58.920 0.686
7 15 MARTIN BLASIG TOYOTA ETIOS 1:58.943 0.709
8 4 LUIGI MELLI TOYOTA ETIOS 1:59.034 0.800
9 113 LUIS BESSONE TOYOTA ETIOS 1:59.147 0.913
10 100 TOMAS BERGALLO TOYOTA ETIOS 1:59.179 0.945
11 118 WALTER BESSONE TOYOTA ETIOS 1:59.210 0.976
12 2 THIAGO MARTINEZ TOYOTA ETIOS 1:59.249 1,015
13 88 JORGE POSSIEL NISSAN MARCH 1:59.378 1,144
14 11 ALFREDO LESTARD RENAULT CLIO 1:59.386 1,152
15 14 JUAN KREITZ NISSAN MARCH 1:59.460 1,226
16 12 SANTIAGO ROBLEDO TOYOTA ETIOS 1:59.466 1,232
17 22 JUAN PABLO URRUTIA FIESTA KINETIC 1:59.497 1,263
18 87 MARCELO MARCHESSE TOYOTA ETIOS 1:59.498 1,264
19 93 MARTIN BADARACO NISSAN MARCH 1:59.546 1,312
20 33 PABLO MALIZIA TOYOTA ETIOS 1:59.580 1,346
21 6 JOAQUIN VOLPE FIESTA KINETIC 2:00.349 2,115
22 35 MARTIN FIERROS TOYOTA ETIOS 2:00.553 2,319
23 78 RAMIRO ALCAINE RENAULT CLIO 2:00.794 2,560
24 77 ELIAS BATTINI TOYOTA ETIOS 2:00.818 2,584
25 3 FRANCISCO COLTRINARI TOYOTA EIOS 2:00.950 2,716
26 91 EMILIANO URQUIZA TOYOTA ETIOS 2:00.991 2,757
27 56 ANDRES GOMEZ LUNA FIESTA KINETIC 2:01.119 2,885
28 36 EDUARDO MORENO TOYOTA ETIOS 2:01.182 2,948
29 38 LUCAS BARBALARGA RENAULT CLIO 2:01.302 3,068
30 37 PABLO COLLAZO FIESTA KINETIC 2:01.401 3,167
31 41 JUAN JOSE CONDE FIESTA KINETIC 2:01.516 3,282
32 52 DANIEL LESTARD TOYOTA ETIOS 2:01.518 3,284
33 8 JUAN MANUEL DAMIANI TOYOTA ETIOS 2:01.907 3,673
34 68 CRISTIAN GARBIGLIA FIESTA KINETIC 2:01.972 3,738
35 114 ESTEBAN CASAIS RENAULT CLIO 2:02.267 4,033
36 20 RUBEN LOIACONO TOYOTA ETIOS 2:02.470 4,236
37 58 MAXIMO DONZINO RENAULT CLIO 2:02.555 4,321
38 74 SEBASTIAN SIGNORE RENAULT CLIO 2:02.813 4,579
39 44 JUAN GARAVAGLIA CHEVROLET ONIX 2:04.764 6,530
40 95 PABLO MELILLO TOYOTA ETIOS 2:04.876 6,642
41 43 DIEGO PRESTA RENAULT CLIO 2:05.651 7,417
42 39 GONZALO ALCAINE TOYOTA ETIOS 2:10.741 12,507
43 99 LUCIANO VIANA TOYOTA ETIOS 2:21.801 23,567
44 40 MARCELO GARCIA RENAULT CLIO 6:36.731 4:38.497
45 32 FACUNDO VACCALLUZZO RENAULT CLIO 6:39.114 4:40.880
46 57 PABLO M. GRIPPO TOYOTA ETIOS 18:58.961 17:00.727